STARLINK-6364, 57378

Orbit data source: Space-Track

STARLINK-6364, 57378 is a payload satellite owned by SpaceX/Seattle (US) in LEO that was launched on Sun, 16 Jul 2023 UTC via an FALCON 9 launch vehicle from the Air Force Eastern Test Range (AFETR). Payload-class satellites include a variety of spacecraft equipped with specific instruments for various scientific and technological missions. These include communications satellites like Starlink; space stations such as the ISS; scientific satellites like the Hubble; Earth observation satellites from companies like Planet Labs, Umbra, and HawkEye 360; GPS; miniature CubeSats for education and research; and military/defense satellites.

Loading next visibility...
Identifier
57378, 2023-099BC
Orbit
LEO
Country
Flag of USUS
Related business
Manufacturer
SpaceX/Seattle
Mission
Operational Commercial Communications
Bus & Motor
STARLINK, Unknown motor
Mass
305 kg wet, ~290 kg dry
Launch date (UTC)
2023-07-16 (3 years ago)
Launch vehicle
FALCON 9
Launch site
Air Force Eastern Test Range (AFETR)
Object type
Payload
Rocket body
Debris
Shape & HBR
Box + 1 Pan, 10.1 m
Radar Cross Section
11.087 m², Large (>1 m²)

Expand to show TLE details & history
Last TLE update: 3 days ago

TLE from 3 days ago
0 STARLINK-6364
1 57378U 23099BC  26170.60517041  .00003573  00000-0  13939-3 0  9999
2 57378  43.0021 356.8952 0001517 258.6440 101.4241 15.27557527162865
Epoch: 2026-06-19T14:31Z
TLE epoch observation values (Epoch: 2026-06-19T14:31:26.723Z)
Latitude
-0.00003°
Longitude
-128.79793°
Altitude
483.098 km
Speed
7.626 km/s
True Right ascension
23h 47m 34s
True Declination
0° 00' 00"
Sunlit
Object was in daylight at epoch
Visualization orbit readout
Latitude
Unknown
Longitude
Unknown
Altitude
Unknown
Speed
Unknown
Apparent Right ascension
Unknown
Apparent Declination
Unknown
Sunlit
N/A
Visualization observer readout
Local Sidereal Time
21:29:58
Azimuth
Unknown
Elevation
Unknown
Doppler factor
Unknown
Orbital elements
Apogee altitude
486.102 km
Perigee altitude
484.02 km
Semi-major axis
6,863.198 km
Eccentricity
0.00015
Inclination
43.0021°
RAAN
356.8952°
Arg. of periapsis
258.644°
True anomaly
101.44114°
Mean anomaly
101.4241°
Eccentric anomaly
101.43262°
Mean motion
3.81727 °/min
Orbital period
94.31 mins
BSTAR
0.00013939
Loading maneuver chart data...
Computing Atmospheric mass density...
Loading historical data...
Loading historical data...
Loading historical data...
Loading historical data...
Loading historical data...
Loading historical data...
Loading historical data...

Documentation

Showing up to 5 results
|